{"data":{"norad_id":55469,"epoch":"2026-09-20T09:53:55.704192Z","epoch_age_seconds":107956,"freshness":"FRESH","line1":"1 55469U 23015W   26263.41245028 -.00000072  00000+0  69286-5 0  9990","line2":"2 55469  43.0031 308.9243 0001385 271.6482  88.4211 15.27576770200506","mean_motion":15.2757677,"eccentricity":0.0001385,"inclination_deg":43.0031,"raan_deg":308.9243,"arg_perigee_deg":271.6482,"mean_anomaly_deg":88.4211,"bstar":6.9286e-6,"rev_number":20050,"period_min":94.266948036923,"perigee_km":482.10849222484,"apogee_km":484.00904345253,"semimajor_km":6861.1957678387,"source":"CELESTRAK","updated_at":"2026-09-21T09:00:33.231562Z"}}